Weather History for Yakima, WA

Change the Weather History Date:

Friday, April 4, 2014

  Actual Average Record
Temperature  
Mean Temperature 49 °F 47 °F  
Max Temperature 63 °F 61 °F 78 °F (1960)
Min Temperature 35 °F 33 °F 21 °F (2003)
Degree Days  
Heating Degree Days 16 18  
Month to date heating degree days 57 72  
Since 1 July heating degree days 5093 5276  
Cooling Degree Days 0 0  
Month to date cooling degree days 0 0  
Year to date cooling degree days 0 0  
Moisture  
Dew Point 30 °F    
Average Humidity 52    
Maximum Humidity 82    
Minimum Humidity 21    
Precipitation  
Precipitation 0.00 in 0.01 in 0.17 in (1948)
Month to date precipitation 0.00 0.06  
Year to date precipitation 2.33 2.60  
Snow  
Snow 0.00 in 0.00 in T in (2003)
Month to date snowfall 0.0 0.0  
Year to date snowfall 19.9 8.6  
Since 1 July snowfall 19.9 21.6  
Snow Depth 0.00 in    
Sea Level Pressure  
Sea Level Pressure 29.88 in    
Wind  
Wind Speed 8 mph (West)    
Max Wind Speed 25 mph    
Max Gust Speed 29 mph    
Visibility 10 miles    
Events      
T = Trace of Precipitation, MM = Missing Value Source: NWS Daily Summary

Daily Weather History Graph

Daily Weather History Graph

Search for Another Location

Airport:

Trip Planner

Search our weather history database for the weather conditions in past years. The results will help you decide how hot, cold, wet, or windy it might be!

Date:

Astronomy

Apr. 04, 2014 Rise Set
Actual Time 6:35 AM PDT 7:35 PM PDT
Civil Twilight 6:04 AM PDT 8:06 PM PDT
Nautical Twilight 5:28 AM PDT 8:43 PM PDT
Astronomical Twilight 4:49 AM PDT 9:22 PM PDT
Moon 9:44 AM PDT (4/4) 12:10 AM PDT (4/4)
Length of Visible Light 14h 01m
Length of Day
12h 59m
Waxing Crescent, 26% of the Moon is Illuminated
Apr 4
Waxing Crescent
Apr 7
First Quarter
Apr 15
Full
Apr 22
Last Quarter
Apr 28
New

Hourly Weather History & Observations

Time (PDT) Temp. Windchill Dew Point Humidity Pressure Visibility Wind Dir Wind Speed Gust Speed Precip Events Conditions
12:53 AM 50.0 °F - 34.0 °F 54% 29.88 in 10.0 mi South 8.1 mph 18.4 mph N/A   Scattered Clouds
1:53 AM 48.9 °F - 33.1 °F 54% 29.87 in 10.0 mi WNW 3.5 mph - N/A   Mostly Cloudy
2:53 AM 46.9 °F - 33.1 °F 59% 29.87 in 10.0 mi NW 3.5 mph - N/A   Clear
3:53 AM 41.0 °F 38.0 °F 32.0 °F 70% 29.88 in 10.0 mi WSW 4.6 mph - N/A   Clear
4:53 AM 42.1 °F 38.4 °F 33.1 °F 70% 29.88 in 10.0 mi West 5.8 mph - N/A   Overcast
5:53 AM 37.9 °F 32.7 °F 30.9 °F 76% 29.89 in 10.0 mi West 6.9 mph - N/A   Partly Cloudy
6:53 AM 36.0 °F 31.1 °F 30.0 °F 79% 29.91 in 10.0 mi West 5.8 mph - N/A   Scattered Clouds
7:53 AM 41.0 °F 37.1 °F 32.0 °F 70% 29.92 in 10.0 mi West 5.8 mph - N/A   Overcast
8:53 AM 46.9 °F - 35.1 °F 63% 29.92 in 10.0 mi Calm Calm - N/A   Partly Cloudy
9:53 AM 51.1 °F - 35.1 °F 54% 29.91 in 10.0 mi NNE 3.5 mph - N/A   Scattered Clouds
10:53 AM 55.0 °F - 33.1 °F 43% 29.90 in 10.0 mi Variable 4.6 mph - N/A   Mostly Cloudy
11:53 AM 55.0 °F - 32.0 °F 42% 29.89 in 10.0 mi North 3.5 mph - N/A   Mostly Cloudy
12:53 PM 59.0 °F - 30.0 °F 33% 29.86 in 10.0 mi SSE 4.6 mph - N/A   Mostly Cloudy
1:53 PM 57.9 °F - 25.0 °F 28% 29.85 in 10.0 mi WSW 6.9 mph - N/A   Mostly Cloudy
2:53 PM 62.1 °F - 23.0 °F 22% 29.83 in 10.0 mi West 5.8 mph - N/A   Mostly Cloudy
3:53 PM 63.0 °F - 23.0 °F 22% 29.82 in 10.0 mi WNW 13.8 mph - N/A   Mostly Cloudy
4:53 PM 61.0 °F - 24.1 °F 24% 29.83 in 10.0 mi WNW 20.7 mph - N/A   Scattered Clouds
5:53 PM 57.9 °F - 27.0 °F 31% 29.86 in 10.0 mi West 21.9 mph 28.8 mph N/A   Scattered Clouds
6:53 PM 55.0 °F - 27.0 °F 34% 29.87 in 10.0 mi West 19.6 mph - N/A   Mostly Cloudy
7:53 PM 52.0 °F - 28.0 °F 40% 29.88 in 10.0 mi West 15.0 mph - N/A   Scattered Clouds
8:53 PM 48.9 °F - 28.9 °F 46% 29.90 in 10.0 mi NW 11.5 mph - N/A   Clear
9:53 PM 48.9 °F - 28.9 °F 46% 29.92 in 10.0 mi SSW 4.6 mph - N/A   Clear
10:53 PM 44.1 °F 42.5 °F 28.9 °F 55% 29.93 in 10.0 mi NE 3.5 mph - N/A   Clear
11:53 PM 39.0 °F 36.8 °F 28.0 °F 65% 29.95 in 10.0 mi West 3.5 mph - N/A   Clear